Location: Moscow
(55.7500°N, 37.5830°E)
Time: 05:16:52
(UTC+03:00)

Vanguard 1 - Pass Details

Date: 11 August 2022
Orbit: 649 x 3832 km, 34.2° (Epoch: 30 September)

Event Time Altitude Azimuth Distance (km) Brightness Sun altitude
Exits shadow 02:35:05 - 172° (S) 5,644 13.5 -14.6°
Reaches altitude 10° 02:39:17 10° 158° (SSE) 5,433 13.5 -14.3°
Maximum altitude 02:47:26 15° 129° (SE) 5,652 13.9 -13.7°
Drops below altitude 10° 02:57:07 10° 101° (E) 6,672 14.6 -12.9°
Sets 03:06:17 0° 84° (E) 7,957 15.4 -12.1°
